Terminal Aerodrome Forecast
Issued by NWS

Current Version | Previous Version | Text Only | Print | Product List | Glossary On
Versions: 1 2 3 4 5 6 7 8 9 10 11 12 13 14 15 16 17 18 19
000 FTUS41 KGYX 301122 TAFLEB TAF KLEB 301122Z 3012/3112 00000KT P6SM BKN150 FM301330 30003KT P6SM SCT040 FM302300 00000KT P6SM SKC FM310800 00000KT 1/4SM FG VV001=

USA.gov is the U.S. government's official web portal to all federal, state and local government web resources and services.